Regional Weather Roundup
Issued by NWS Wakefield, VA

Home | Current Version | Previous Version | Text Only | Print | Product List | Glossary On
Versions: 1 2 3 4 5 6 7 8 9 10 11 12 13 14 15 16 17 18 19 20 21 22 23 24 25 26 27 28 29 30 31 32 33 34 35 36 37 38 39 40 41 42 43 44 45 46 47 48 49 50
267
ASUS41 KAKQ 050315
RWRAKQ

REGIONAL WEATHER ROUNDUP
NATIONAL WEATHER SERVICE WAKEFIELD VA
1000 PM EST SUN DEC 04 2016

Note: "fair" indicates few or no clouds below 12,000 feet with no
significant weather and/or obstructions to visibility. * = Denotes
station may not report precipitation (e.g., rain,snow,etc.),
thunder or fog.

VAZ042-051-052>054-056-050400-
NORTHERN VIRGINIA

CITY           SKY/WX    TMP DP  RH WIND       PRES   REMARKS
WASH NATIONAL  LGT RAIN  43  36  76 S9        30.14F
DULLES         LGT RAIN  39  33  79 S7        30.11F
FORT BELVOIR   LGT RAIN  40  35  81 SE5       30.13F
QUANTICO       LGT RAIN  42  34  73 SW12      30.16F
FREDERICKSBRG* DRIZZLE   40  39  96 SE3       30.14F
STAFFORD*      HVY RAIN  38  38 100 S5        30.18F
WARRENTON      RAIN      39  34  82 SE3       30.11F
CULPEPER*      RAIN      39  37  95 S3        30.13F
MANASSAS*      CLOUDY    39  37  93 S8        30.13F
LEESBURG*      LGT RAIN  41  37  87 MISG      30.10F
WINCHESTER     RAIN      36  32  87 S8        30.05F
FRONT ROYAL*   CLOUDY    36  34  93 CALM      30.04F
LURAY*         RAIN      36  36 100 SW7       30.04F
$$

VAZ048-049-060>072-079>083-050400-
CENTRAL AND SOUTH CENTRAL VIRGINIA

CITY           SKY/WX    TMP DP  RH WIND       PRES   REMARKS
RICHMOND       LGT RAIN  39  37  92 SE6       30.14F
CHESTERFIELD*  CLOUDY    39  25  56 CALM      30.15F
PETERSBURG*    DRIZZLE   39  38  94 CALM      30.15F
HANOVER        CLOUDY    40  36  86 CALM      30.16F
TAPPAHANNOCK*  DRIZZLE   41  36  82 CALM      30.16F
QUINTON*       CLOUDY    40  38  94 MISG      30.15F
CHARLOTTSVILLE LGT RAIN  39  36  89 S6        30.10F FOG
GORDONSVILLE*  CLOUDY    37  37  98 CALM      30.11F FOG
ORANGE*        DRIZZLE   37  37 100 CALM      30.13F
LOUISA*        RAIN      41  39  93 SE5       30.11F
BUMPASS*       CLOUDY    38  37  99 CALM      30.13F
FARMVILLE*     DRIZZLE   40  40 100 CALM      30.11F
CREWE*         CLOUDY    39  39 100 CALM      30.12F
FORT PICKETT*  CLOUDY    39  36  88 CALM      30.12F
CHASE CITY*    CLOUDY    39  38  95 CALM      30.11F
CLARKSVILLE*   CLOUDY    41  41 100 CALM      30.11S
SOUTH HILL*    CLOUDY    39  39 100 CALM      30.17F
LAWRENCEVILLE* CLOUDY    40  39  97 E3        30.12F
EMPORIA*       RAIN      41  39  93 CALM      30.16F
$$

VAZ088>098-050400-
SOUTHEAST VIRGINIA

CITY           SKY/WX    TMP DP  RH WIND       PRES   REMARKS
NORFOLK        LGT RAIN  45  40  82 E5        30.16F
VIRGINIA BEACH LGT RAIN  44  40  85 CALM      30.16F
NORFOLK NAVAL  LGT RAIN  45  41  86 E3        30.18F
WEST POINT*    CLOUDY    41  39  93 CALM      30.17F
SALUDA*        CLOUDY    41  40  97 SE3       30.16F
NEWPORT NEWS   LGT RAIN  43  40  89 E5        30.16F
LANGLEY AFB    LGT RAIN  45  40  84 E5        30.15F
FORT EUSTIS    CLOUDY    43  37  81 CALM      30.14F
WILLIAMSBURG*  CLOUDY    43  41  93 CALM      30.16F
HR EXEC AP*    CLOUDY    43  39  87 CALM      30.15F
FRANKLIN*      RAIN      42  40  91 NE3       30.16F
US460-WAKEFLD  LGT RAIN  41  40  96 CALM      30.15F
$$

VAZ020-022-025-037-045-050400-
WEST CENTRAL AND SOUTHWEST VIRGINIA

CITY           SKY/WX    TMP DP  RH WIND       PRES   REMARKS
STAUNTON*      LGT RAIN  35  34  96 S6        30.07F
WAYNESBORO*    CLOUDY    35  34  96 CALM      30.05F
HOT SPRINGS VA MIX PCPN  30  30 100 S7        29.95F VSB 1/4
LYNCHBURG      LGT RAIN  37  36  96 CALM      30.11F FOG
DANVILLE       CLOUDY    40  40 100 CALM      30.11F FOG
SOUTH BOSTON*  CLOUDY    40  38  95 CALM      30.12F
MARTINSVILLE   RAIN      38  37  97 CALM      30.12S
ROANOKE        LGT RAIN  37  36  96 SE9       30.09F FOG
BLACKSBURG     DRIZZLE   35  35  99 E5        30.06F
DUBLIN*        CLOUDY    37  37  99 CALM      30.04F FOG
MARION*        CLOUDY    38  37  96 NE8       30.01S
HILLSVILLE*    MIX PCPN  37  37 100 SW6       30.00F
RICHLANDS*     CLOUDY    45  43  94 CALM      29.96R
WISE*          DRIZZLE   43  43 100 S5        29.96S
ABINGDON*      CLOUDY    45  44  98 CALM      29.98R FOG
$$

MDZ021>025-VAZ099-100-050400-
SOUTHERN MARYLAND AND THE DELMARVA PENINSULA

CITY           SKY/WX    TMP DP  RH WIND       PRES   REMARKS
PATUXENT RIVER LGT RAIN  43  35  73 S3        30.15F
BAY BRIDGE APT LGT RAIN  45  34  65 S7        30.15S
LEONARDTOWN    CLOUDY    41  36  81 CALM      30.17F
DOVER          CLOUDY    42  35  76 S3        30.16R
GEORGETOWN     CLOUDY    42  33  70 S3        30.17F
EASTON         MOCLDY    44  32  62 SW6       30.20S
CAMBRIDGE      CLOUDY    41  32  70 CALM      30.16S
SALISBURY      CLOUDY    41  35  79 S3        30.16F
OCEAN CITY     CLOUDY    42  36  79 W3        30.17F
WALLOPS ISLAND LGT RAIN  42  36  79 CALM      30.18F
ACCOMACK*      DRIZZLE   42  38  88 S3        30.17F
$$

NCZ012>017-030>032-050400-
NORTH CENTRAL AND EASTERN NORTH CAROLINA

CITY           SKY/WX    TMP DP  RH WIND       PRES   REMARKS
ROANOKE RAPIDS RAIN      41  41 100 CALM      30.13F
RALEIGH        LGT RAIN  42  40  92 E3        30.11F FOG
ELIZABETH CITY LGT RAIN  46  41  82 E7        30.16F
AHOSKIE*       RAIN      42  41  96 CALM      30.15F
EDENTON*       DRIZZLE   47  43  84 CALM      30.16F
CURRITUCK*     LGT RAIN  44  44 100 CALM      30.18F
KILL DEVIL HLS DRIZZLE   48  42  81 E3        30.15F
MANTEO         CLOUDY    47  43  85 E5        30.16F
CAPE HATTERAS  LGT RAIN  49  44  83 NE6       30.15F
TARBORO*       NOT AVBL
GOLDSBORO      CLOUDY    44  44 100 E7        30.10S
WASHINGTON     LGT RAIN  44  42  94 E5        30.14F
GREENVILLE     LGT RAIN  45  45 100 SE6       30.13F
NEW BERN       RAIN      47  44  90 E7        30.13F
WILMINGTON     LGT RAIN  47  47 100 CALM      30.10F
$$

VAZ048-050400-
ELSEWHERE

CITY           SKY/WX    TMP DP  RH WIND       PRES   REMARKS
HARRISBURG PA  CLOUDY    41  32  70 SE8       30.09F
BALTIMORE      LGT RAIN  42  33  70 S5        30.13F
ANNAPOLIS      LGT RAIN  45  32  60 S7        30.13F
ANDREWS AFB    LGT RAIN  40  35  82 S7        30.12F
PHILADELPHIA   CLOUDY    43  31  62 S3        30.15F
HENDERSON NC   DRIZZLE   38  37  94 CALM      30.11F
GREENSBORO     LGT RAIN  41  41 100 SE3       30.09F FOG
ROCKY MOUNT    LGT RAIN  43  43 100 CALM      30.12F FOG
$$

VAZ100-050400-
MARINE

STATION/POSITION TIME  TEMP    WIND        PRES    WAVE   SWELL
                       AIR SEA DIR/SP/G            HT/PER HT/PER
                 (UTC) (F)     (DEG/KT/KT) (MB)    (FT/S) (FT/S)
BRANDYWINE LGT   0248   45     190/ 11/ 11   N/A
CAPE MAY NJ      0248   44 48  140/  3/  3 1020.9F
LEWES DE         0248   44 49  220/  3/  4 1021.1F
OCEAN-CITY-INLET 0248   44 50  250/  5/  7 1021.9F
WACHAPREAGUE VA  0248   43 48  240/  2/  2 1021.7F
THOMAS POINT MD  0300   44 49  200/ 16/ 18   N/A
GOOSES REEF MD   0300   45 50  200/ 12/ 14 1021.8    1/ 2
COVE POINT MD    0248   43     210/  9/ 13 1021.8F
SOLOMONS ISLAND  0248   44 51  190/  6/  8   N/A
BISHOPS HEAD MD  0248   44 44  170/  8/  9 1021.5F
PINEY POINT MD   0248          210/  9/ 11   N/A
POTOMAC MD       0300   45 51  220/ 10/ 12 1020.4
CAMBRIDGE MD     0248   43 47  200/  3/  5 1020.8F
LEWISETTA VA     0248   43 48  210/  6/  8 1021.0F
RAPPAHANNOCK LGT 0248          170/  8/  9 1022.4F
STINGRAY PT      0250   45     200/  6/  8 1021.9F
YORK RVR RNG VA  0248   46     140/  6/  7 1020.9F
YORKTOWN VA      0248   45 52  120/  5/  6 1020.9F
JAMESTOWN VA     0300   45 51  140/ 10/ 12   N/A     0
DOMINION TERM VA 0248   46     120/  7/  9 1021.3F
KIPTOPEKE VA     0248      51   80/  3/  4   N/A
CHES BAY BRIDGE  0248   47 54  110/  4/  6 1021.5F
CAPE HENRY VA    0248   45     160/  3/  3   N/A
WILLOUBY STN VA  0248   45     120/  7/  8 1022.1F
S CRANEY ISL VA  0248   46     110/  6/  7 1021.2F
CAPE HENRY BUOY  0242      56                N/A     2/ 6
1ST LANDING BUOY 0300   47 53              1021.7    1/ 3
CAPE CHARLES BUO 0256      55                N/A     2/ 6
OFFSHORE WE BUOY 0251      56                N/A     3/ 7
64NM E OF VA BCH 0250   51 59   90/  4/  8 1021.3F   3/ 7   3/ 7
DUCK PIER NC     0248   49 55  120/  8/ 10 1020.8F
44100 DUCK FRF   0235      56                N/A     3/ 5
OREGON INLET NC  0242   50 55   50/  5/  7 1021.1F
HATTERAS NC      0248   51 58   60/  4/  5 1020.5F
DIAMOND SHLS NC  0250   60 74  120/  4/  8 1020.8F   3/ 8   3/ 8
CAPE LOOKOUT NC  0300   57     100/ 14/ 17 1019.4F
$$




USA.gov is the U.S. government's official web portal to all federal, state and local government web resources and services.